Time,TemperatureF,DewpointF,PressureIn,WindDirection,WindDirectionDegrees,WindSpeedMPH,WindSpeedGustMPH,Humidity,HourlyPrecipIn,Conditions,Clouds,dailyrainin,SoftwareType,DateUTC
2013-07-30 00:05:00,60.5,58.5,30.13,ESE,104,1.0,2.0,93,0.00,,,0.00,Wunderground v.1.15,2013-07-30 05:05:00,
2013-07-30 00:10:00,60.4,58.4,30.13,East,99,1.0,3.0,93,0.00,,,0.00,Wunderground v.1.15,2013-07-30 05:10:00,
2013-07-30 00:15:00,60.3,58.3,30.13,East,92,1.0,3.0,93,0.00,,,0.00,Wunderground v.1.15,2013-07-30 05:15:00,
2013-07-30 00:20:00,60.2,58.2,30.13,ESE,119,2.0,2.0,93,0.00,,,0.00,Wunderground v.1.15,2013-07-30 05:20:00,
2013-07-30 00:25:00,60.2,58.2,30.13,ENE,73,2.0,2.0,93,0.00,,,0.00,Wunderground v.1.15,2013-07-30 05:25:00,
2013-07-30 00:30:00,60.1,58.1,30.13,East,87,2.0,2.0,93,0.00,,,0.00,Wunderground v.1.15,2013-07-30 05:30:00,
2013-07-30 00:35:00,60.0,58.0,30.13,East,94,1.0,2.0,93,0.00,,,0.00,Wunderground v.1.15,2013-07-30 05:35:00,
2013-07-30 00:40:00,59.9,57.9,30.13,East,98,2.0,2.0,93,0.00,,,0.00,Wunderground v.1.15,2013-07-30 05:40:00,
2013-07-30 00:50:00,59.8,57.8,30.12,East,91,2.0,2.0,93,0.00,,,0.00,Wunderground v.1.15,2013-07-30 05:50:00,
2013-07-30 00:55:00,59.7,57.7,30.12,East,90,1.0,5.0,93,0.00,,,0.00,Wunderground v.1.15,2013-07-30 05:55:00,
2013-07-30 01:00:00,59.6,57.9,30.12,East,92,1.0,1.0,94,0.00,,,0.00,Wunderground v.1.15,2013-07-30 06:00:00,
2013-07-30 01:05:00,59.6,57.9,30.12,East,92,1.0,1.0,94,0.00,,,0.00,Wunderground v.1.15,2013-07-30 06:05:00,
2013-07-30 01:10:00,59.5,57.8,30.12,East,92,1.0,2.0,94,0.00,,,0.00,Wunderground v.1.15,2013-07-30 06:10:00,
2013-07-30 01:15:00,59.4,57.7,30.12,East,92,1.0,2.0,94,0.00,,,0.00,Wunderground v.1.15,2013-07-30 06:15:00,
2013-07-30 01:20:00,59.4,57.7,30.13,East,92,1.0,1.0,94,0.00,,,0.00,Wunderground v.1.15,2013-07-30 06:20:00,
2013-07-30 01:25:00,59.3,57.6,30.13,East,92,0.0,1.0,94,0.00,,,0.00,Wunderground v.1.15,2013-07-30 06:25:00,
2013-07-30 01:30:00,59.2,57.5,30.13,East,92,0.0,0.0,94,0.00,,,0.00,Wunderground v.1.15,2013-07-30 06:30:00,
2013-07-30 01:35:00,59.1,57.4,30.13,East,92,0.0,0.0,94,0.00,,,0.00,Wunderground v.1.15,2013-07-30 06:35:00,
2013-07-30 01:40:00,59.1,57.4,30.13,East,92,0.0,0.0,94,0.00,,,0.00,Wunderground v.1.15,2013-07-30 06:40:00,
2013-07-30 01:45:00,59.0,57.6,30.13,East,92,0.0,0.0,95,0.00,,,0.00,Wunderground v.1.15,2013-07-30 06:45:00,
2013-07-30 01:50:00,58.9,57.5,30.13,East,92,0.0,5.0,95,0.00,,,0.00,Wunderground v.1.15,2013-07-30 06:50:00,
2013-07-30 01:55:00,58.9,57.5,30.13,East,92,0.0,5.0,95,0.00,,,0.00,Wunderground v.1.15,2013-07-30 06:55:00,
2013-07-30 02:00:00,58.7,57.3,30.13,East,92,0.0,0.0,95,0.00,,,0.00,Wunderground v.1.15,2013-07-30 07:00:00,
2013-07-30 02:05:00,58.7,57.3,30.13,ESE,115,0.0,0.0,95,0.00,,,0.00,Wunderground v.1.15,2013-07-30 07:05:00,
2013-07-30 02:10:00,58.7,57.3,30.13,ESE,121,0.0,2.0,95,0.00,,,0.00,Wunderground v.1.15,2013-07-30 07:10:00,
2013-07-30 02:15:00,58.7,57.3,30.13,ESE,112,1.0,2.0,95,0.00,,,0.00,Wunderground v.1.15,2013-07-30 07:15:00,
2013-07-30 02:20:00,58.7,57.3,30.13,ESE,111,1.0,1.0,95,0.00,,,0.00,Wunderground v.1.15,2013-07-30 07:20:00,
2013-07-30 02:25:00,58.8,57.4,30.12,ESE,108,1.0,1.0,95,0.00,,,0.00,Wunderground v.1.15,2013-07-30 07:25:00,
2013-07-30 02:30:00,58.7,57.3,30.13,ESE,102,1.0,1.0,95,0.00,,,0.00,Wunderground v.1.15,2013-07-30 07:30:00,
2013-07-30 02:35:00,58.7,57.3,30.12,ESE,102,0.0,1.0,95,0.00,,,0.00,Wunderground v.1.15,2013-07-30 07:35:00,
2013-07-30 02:40:00,58.7,57.3,30.13,ESE,103,0.0,0.0,95,0.00,,,0.00,Wunderground v.1.15,2013-07-30 07:40:00,
2013-07-30 02:45:00,58.7,57.3,30.12,East,86,1.0,1.0,95,0.00,,,0.00,Wunderground v.1.15,2013-07-30 07:45:00,
2013-07-30 02:50:00,58.6,57.2,30.12,East,95,1.0,1.0,95,0.00,,,0.00,Wunderground v.1.15,2013-07-30 07:50:00,
2013-07-30 02:55:00,58.5,57.1,30.12,East,101,1.0,2.0,95,0.00,,,0.00,Wunderground v.1.15,2013-07-30 07:55:00,
2013-07-30 03:00:00,58.4,57.0,30.11,East,88,2.0,2.0,95,0.00,,,0.00,Wunderground v.1.15,2013-07-30 08:00:00,
2013-07-30 03:05:00,58.4,57.0,30.11,East,94,2.0,2.0,95,0.00,,,0.00,Wunderground v.1.15,2013-07-30 08:05:00,
2013-07-30 03:10:00,58.3,56.9,30.11,East,94,1.0,2.0,95,0.00,,,0.00,Wunderground v.1.15,2013-07-30 08:10:00,
2013-07-30 03:15:00,58.2,56.8,30.11,East,89,1.0,2.0,95,0.00,,,0.00,Wunderground v.1.15,2013-07-30 08:15:00,
2013-07-30 03:20:00,58.1,56.7,30.11,East,92,2.0,2.0,95,0.00,,,0.00,Wunderground v.1.15,2013-07-30 08:20:00,
2013-07-30 03:25:00,58.0,56.9,30.11,East,93,1.0,2.0,96,0.00,,,0.00,Wunderground v.1.15,2013-07-30 08:25:00,
2013-07-30 03:30:00,58.0,56.9,30.11,East,96,1.0,1.0,96,0.00,,,0.00,Wunderground v.1.15,2013-07-30 08:30:00,
2013-07-30 03:35:00,58.0,56.9,30.11,East,86,1.0,1.0,96,0.00,,,0.00,Wunderground v.1.15,2013-07-30 08:35:00,
2013-07-30 03:40:00,58.0,56.9,30.11,East,90,1.0,2.0,96,0.00,,,0.00,Wunderground v.1.15,2013-07-30 08:40:00,
2013-07-30 03:45:00,58.0,56.9,30.11,East,97,1.0,2.0,96,0.00,,,0.00,Wunderground v.1.15,2013-07-30 08:45:00,
2013-07-30 03:50:00,57.9,56.8,30.11,East,94,1.0,3.0,96,0.00,,,0.00,Wunderground v.1.15,2013-07-30 08:50:00,
2013-07-30 03:55:00,57.9,56.8,30.11,East,96,1.0,3.0,96,0.00,,,0.00,Wunderground v.1.15,2013-07-30 08:55:00,
2013-07-30 04:00:00,57.8,56.7,30.11,East,95,1.0,1.0,96,0.00,,,0.00,Wunderground v.1.15,2013-07-30 09:00:00,
2013-07-30 04:05:00,57.8,56.7,30.11,East,95,1.0,1.0,96,0.00,,,0.00,Wunderground v.1.15,2013-07-30 09:05:00,
2013-07-30 04:10:00,57.7,56.6,30.11,East,94,1.0,1.0,96,0.00,,,0.00,Wunderground v.1.15,2013-07-30 09:10:00,
2013-07-30 04:15:00,57.7,56.6,30.11,East,96,1.0,1.0,96,0.00,,,0.00,Wunderground v.1.15,2013-07-30 09:15:00,
2013-07-30 04:20:00,57.6,56.5,30.11,East,96,1.0,1.0,96,0.00,,,0.00,Wunderground v.1.15,2013-07-30 09:20:00,
2013-07-30 04:25:00,57.6,56.5,30.11,East,96,1.0,1.0,96,0.00,,,0.00,Wunderground v.1.15,2013-07-30 09:25:00,
2013-07-30 04:30:00,57.5,56.4,30.11,East,96,1.0,1.0,96,0.00,,,0.00,Wunderground v.1.15,2013-07-30 09:30:00,
2013-07-30 04:35:00,57.5,56.4,30.11,East,96,0.0,1.0,96,0.00,,,0.00,Wunderground v.1.15,2013-07-30 09:35:00,
2013-07-30 04:40:00,57.4,56.3,30.12,East,96,0.0,0.0,96,0.00,,,0.00,Wunderground v.1.15,2013-07-30 09:40:00,
2013-07-30 04:45:00,57.3,56.2,30.12,East,96,0.0,0.0,96,0.00,,,0.00,Wunderground v.1.15,2013-07-30 09:45:00,
2013-07-30 04:50:00,57.3,56.2,30.12,East,96,0.0,3.0,96,0.00,,,0.00,Wunderground v.1.15,2013-07-30 09:50:00,
2013-07-30 04:55:00,57.3,56.5,30.12,East,96,0.0,3.0,97,0.00,,,0.00,Wunderground v.1.15,2013-07-30 09:55:00,
2013-07-30 05:00:00,57.3,56.5,30.12,East,96,0.0,0.0,97,0.00,,,0.00,Wunderground v.1.15,2013-07-30 10:00:00,
2013-07-30 05:05:00,57.3,56.5,30.13,East,96,0.0,0.0,97,0.00,,,0.00,Wunderground v.1.15,2013-07-30 10:05:00,
2013-07-30 05:10:00,57.4,56.6,30.13,East,96,0.0,0.0,97,0.00,,,0.00,Wunderground v.1.15,2013-07-30 10:10:00,
2013-07-30 05:15:00,57.5,56.7,30.13,East,96,0.0,0.0,97,0.00,,,0.00,Wunderground v.1.15,2013-07-30 10:15:00,
2013-07-30 05:20:00,57.5,56.7,30.13,East,96,0.0,0.0,97,0.00,,,0.00,Wunderground v.1.15,2013-07-30 10:20:00,
2013-07-30 05:25:00,57.5,56.7,30.13,East,96,0.0,0.0,97,0.00,,,0.00,Wunderground v.1.15,2013-07-30 10:25:00,
2013-07-30 05:30:00,57.5,56.7,30.13,East,96,0.0,0.0,97,0.00,,,0.00,Wunderground v.1.15,2013-07-30 10:30:00,
2013-07-30 05:35:00,57.5,56.7,30.13,East,96,0.0,0.0,97,0.00,,,0.00,Wunderground v.1.15,2013-07-30 10:35:00,
2013-07-30 05:40:00,57.3,56.5,30.14,East,96,0.0,0.0,97,0.00,,,0.00,Wunderground v.1.15,2013-07-30 10:40:00,
2013-07-30 05:45:00,57.3,56.5,30.14,East,96,0.0,0.0,97,0.00,,,0.00,Wunderground v.1.15,2013-07-30 10:45:00,
2013-07-30 05:50:00,57.3,56.5,30.13,East,96,0.0,1.0,97,0.00,,,0.00,Wunderground v.1.15,2013-07-30 10:50:00,
2013-07-30 05:55:00,57.3,56.5,30.13,East,96,0.0,1.0,97,0.00,,,0.00,Wunderground v.1.15,2013-07-30 10:55:00,
2013-07-30 06:00:00,57.3,56.5,30.13,East,96,0.0,0.0,97,0.00,,,0.00,Wunderground v.1.15,2013-07-30 11:00:00,
2013-07-30 06:10:00,57.3,56.5,30.14,East,96,0.0,0.0,97,0.00,,,0.00,Wunderground v.1.15,2013-07-30 11:10:00,
2013-07-30 06:15:00,57.3,56.5,30.14,East,96,0.0,1.0,97,0.00,,,0.00,Wunderground v.1.15,2013-07-30 11:15:00,
2013-07-30 06:20:00,57.5,56.7,30.14,East,96,0.0,1.0,97,0.00,,,0.00,Wunderground v.1.15,2013-07-30 11:20:00,
2013-07-30 06:25:00,57.6,56.8,30.14,East,96,1.0,2.0,97,0.00,,,0.00,Wunderground v.1.15,2013-07-30 11:25:00,
2013-07-30 06:30:00,57.7,57.1,30.14,East,96,2.0,2.0,98,0.00,,,0.00,Wunderground v.1.15,2013-07-30 11:30:00,
2013-07-30 06:35:00,57.9,57.3,30.13,East,98,1.0,2.0,98,0.00,,,0.00,Wunderground v.1.15,2013-07-30 11:35:00,
2013-07-30 06:40:00,58.1,57.5,30.13,East,86,1.0,1.0,98,0.00,,,0.00,Wunderground v.1.15,2013-07-30 11:40:00,
2013-07-30 06:45:00,58.3,57.7,30.13,East,84,1.0,1.0,98,0.00,,,0.00,Wunderground v.1.15,2013-07-30 11:45:00,
2013-07-30 06:50:00,58.5,57.9,30.13,ENE,78,1.0,1.0,98,0.00,,,0.00,Wunderground v.1.15,2013-07-30 11:50:00,
2013-07-30 06:55:00,58.9,58.3,30.13,East,81,1.0,1.0,98,0.00,,,0.00,Wunderground v.1.15,2013-07-30 11:55:00,
2013-07-30 07:00:00,59.2,58.6,30.13,ESE,114,0.0,1.0,98,0.00,,,0.00,Wunderground v.1.15,2013-07-30 12:00:00,
2013-07-30 07:05:00,59.5,58.6,30.13,ESE,107,0.0,1.0,97,0.00,,,0.00,Wunderground v.1.15,2013-07-30 12:05:00,
2013-07-30 07:10:00,59.7,58.8,30.13,East,96,1.0,1.0,97,0.00,,,0.00,Wunderground v.1.15,2013-07-30 12:10:00,
2013-07-30 07:15:00,59.9,59.0,30.13,East,96,1.0,2.0,97,0.00,,,0.00,Wunderground v.1.15,2013-07-30 12:15:00,
2013-07-30 07:25:00,60.2,59.1,30.13,ESE,108,2.0,2.0,96,0.00,,,0.00,Wunderground v.1.15,2013-07-30 12:25:00,
2013-07-30 07:30:00,60.3,59.2,30.13,East,90,2.0,2.0,96,0.00,,,0.00,Wunderground v.1.15,2013-07-30 12:30:00,
2013-07-30 07:35:00,60.5,59.4,30.13,ESE,113,1.0,3.0,96,0.00,,,0.00,Wunderground v.1.15,2013-07-30 12:35:00,
2013-07-30 07:40:00,60.7,59.6,30.13,East,90,1.0,2.0,96,0.00,,,0.00,Wunderground v.1.15,2013-07-30 12:40:00,
2013-07-30 07:45:00,60.9,59.8,30.13,East,92,1.0,2.0,96,0.00,,,0.00,Wunderground v.1.15,2013-07-30 12:45:00,
2013-07-30 07:50:00,61.3,59.9,30.13,East,91,2.0,5.0,95,0.00,,,0.00,Wunderground v.1.15,2013-07-30 12:50:00,
2013-07-30 07:55:00,61.6,60.2,30.13,East,101,2.0,5.0,95,0.00,,,0.00,Wunderground v.1.15,2013-07-30 12:55:00,
2013-07-30 08:00:00,61.9,60.2,30.13,ENE,78,2.0,2.0,94,0.00,,,0.00,Wunderground v.1.15,2013-07-30 13:00:00,
2013-07-30 08:05:00,62.2,60.2,30.13,ESE,102,1.0,2.0,93,0.00,,,0.00,Wunderground v.1.15,2013-07-30 13:05:00,
2013-07-30 08:10:00,62.5,60.1,30.13,ENE,78,1.0,2.0,92,0.00,,,0.00,Wunderground v.1.15,2013-07-30 13:10:00,
2013-07-30 08:15:00,62.8,60.1,30.13,ENE,58,1.0,3.0,91,0.00,,,0.00,Wunderground v.1.15,2013-07-30 13:15:00,
2013-07-30 08:20:00,63.1,60.1,30.13,East,88,1.0,1.0,90,0.00,,,0.00,Wunderground v.1.15,2013-07-30 13:20:00,
2013-07-30 08:25:00,63.5,60.2,30.13,SE,128,1.0,1.0,89,0.00,,,0.00,Wunderground v.1.15,2013-07-30 13:25:00,
2013-07-30 08:30:00,63.8,60.2,30.13,SE,126,1.0,1.0,88,0.00,,,0.00,Wunderground v.1.15,2013-07-30 13:30:00,
2013-07-30 08:40:00,64.4,60.4,30.13,SE,130,2.0,3.0,87,0.00,,,0.00,Wunderground v.1.15,2013-07-30 13:40:00,
2013-07-30 08:45:00,64.7,60.4,30.13,East,96,2.0,3.0,86,0.00,,,0.00,Wunderground v.1.15,2013-07-30 13:45:00,
2013-07-30 08:50:00,65.1,60.5,30.13,SE,131,2.0,3.0,85,0.00,,,0.00,Wunderground v.1.15,2013-07-30 13:50:00,
2013-07-30 08:55:00,65.4,61.1,30.13,ESE,114,2.0,3.0,86,0.00,,,0.00,Wunderground v.1.15,2013-07-30 13:55:00,
2013-07-30 09:00:00,65.6,61.3,30.13,SSE,148,1.0,1.0,86,0.00,,,0.00,Wunderground v.1.15,2013-07-30 14:00:00,
2013-07-30 09:05:00,65.8,61.2,30.13,SSE,158,1.0,1.0,85,0.00,,,0.00,Wunderground v.1.15,2013-07-30 14:05:00,
2013-07-30 09:10:00,66.1,61.5,30.13,East,82,2.0,3.0,85,0.00,,,0.00,Wunderground v.1.15,2013-07-30 14:10:00,
2013-07-30 09:15:00,66.2,61.6,30.13,ESE,115,1.0,3.0,85,0.00,,,0.00,Wunderground v.1.15,2013-07-30 14:15:00,
2013-07-30 09:20:00,66.3,62.0,30.13,East,99,1.0,1.0,86,0.00,,,0.00,Wunderground v.1.15,2013-07-30 14:20:00,
2013-07-30 09:25:00,66.4,61.8,30.13,East,85,1.0,1.0,85,0.00,,,0.00,Wunderground v.1.15,2013-07-30 14:25:00,
2013-07-30 09:30:00,66.6,61.6,30.13,ENE,69,1.0,1.0,84,0.00,,,0.00,Wunderground v.1.15,2013-07-30 14:30:00,
2013-07-30 09:35:00,66.8,62.1,30.13,East,97,1.0,1.0,85,0.00,,,0.00,Wunderground v.1.15,2013-07-30 14:35:00,
2013-07-30 09:40:00,66.9,61.9,30.13,ESE,117,1.0,1.0,84,0.00,,,0.00,Wunderground v.1.15,2013-07-30 14:40:00,
2013-07-30 09:45:00,67.0,61.7,30.13,SE,128,2.0,2.0,83,0.00,,,0.00,Wunderground v.1.15,2013-07-30 14:45:00,
2013-07-30 09:50:00,67.2,61.5,30.13,SE,140,1.0,5.0,82,0.00,,,0.00,Wunderground v.1.15,2013-07-30 14:50:00,
2013-07-30 09:55:00,67.3,61.6,30.12,East,101,1.0,5.0,82,0.00,,,0.00,Wunderground v.1.15,2013-07-30 14:55:00,
2013-07-30 10:00:00,67.6,62.3,30.12,SSE,158,1.0,2.0,83,0.00,,,0.00,Wunderground v.1.15,2013-07-30 15:00:00,
2013-07-30 10:05:00,67.7,62.7,30.12,SE,126,1.0,2.0,84,0.00,,,0.00,Wunderground v.1.15,2013-07-30 15:05:00,
2013-07-30 10:10:00,68.0,63.0,30.12,East,87,1.0,1.0,84,0.00,,,0.00,Wunderground v.1.15,2013-07-30 15:10:00,
2013-07-30 10:15:00,68.3,62.2,30.12,East,83,2.0,2.0,81,0.00,,,0.00,Wunderground v.1.15,2013-07-30 15:15:00,
2013-07-30 10:20:00,68.6,62.5,30.12,SSE,159,2.0,2.0,81,0.00,,,0.00,Wunderground v.1.15,2013-07-30 15:20:00,
2013-07-30 10:25:00,68.9,62.5,30.12,SE,144,1.0,2.0,80,0.00,,,0.00,Wunderground v.1.15,2013-07-30 15:25:00,
2013-07-30 10:30:00,69.2,62.4,30.12,ESE,103,1.0,1.0,79,0.00,,,0.00,Wunderground v.1.15,2013-07-30 15:30:00,
2013-07-30 10:35:00,69.7,63.3,30.12,South,184,2.0,5.0,80,0.00,,,0.00,Wunderground v.1.15,2013-07-30 15:35:00,
2013-07-30 10:40:00,69.9,62.4,30.12,ESE,122,2.0,5.0,77,0.00,,,0.00,Wunderground v.1.15,2013-07-30 15:40:00,
2013-07-30 10:45:00,70.2,62.3,30.12,South,177,2.0,5.0,76,0.00,,,0.00,Wunderground v.1.15,2013-07-30 15:45:00,
2013-07-30 10:50:00,70.8,62.5,30.12,East,94,1.0,1.0,75,0.00,,,0.00,Wunderground v.1.15,2013-07-30 15:50:00,
2013-07-30 10:55:00,71.6,63.3,30.12,South,184,1.0,2.0,75,0.00,,,0.00,Wunderground v.1.15,2013-07-30 15:55:00,
2013-07-30 11:00:00,72.3,63.5,30.12,SSW,193,1.0,1.0,74,0.00,,,0.00,Wunderground v.1.15,2013-07-30 16:00:00,
2013-07-30 11:05:00,72.8,62.0,30.12,South,188,2.0,3.0,69,0.00,,,0.00,Wunderground v.1.15,2013-07-30 16:05:00,
2013-07-30 11:10:00,73.0,61.4,30.12,SSE,159,3.0,5.0,67,0.00,,,0.00,Wunderground v.1.15,2013-07-30 16:10:00,
2013-07-30 11:15:00,73.3,62.1,30.11,East,83,2.0,5.0,68,0.00,,,0.00,Wunderground v.1.15,2013-07-30 16:15:00,
2013-07-30 11:20:00,73.4,62.2,30.11,SSE,157,2.0,3.0,68,0.00,,,0.00,Wunderground v.1.15,2013-07-30 16:20:00,
2013-07-30 11:25:00,73.4,62.6,30.11,SSW,192,3.0,3.0,69,0.00,,,0.00,Wunderground v.1.15,2013-07-30 16:25:00,
2013-07-30 11:30:00,73.7,62.1,30.11,ESE,113,3.0,3.0,67,0.00,,,0.00,Wunderground v.1.15,2013-07-30 16:30:00,
2013-07-30 11:35:00,73.6,62.4,30.11,ESE,108,3.0,3.0,68,0.00,,,0.00,Wunderground v.1.15,2013-07-30 16:35:00,
2013-07-30 11:45:00,73.2,62.4,30.11,SSE,165,3.0,5.0,69,0.00,,,0.00,Wunderground v.1.15,2013-07-30 16:45:00,
2013-07-30 11:50:00,73.0,62.6,30.11,ESE,120,2.0,2.0,70,0.00,,,0.00,Wunderground v.1.15,2013-07-30 16:50:00,
2013-07-30 11:55:00,73.0,62.2,30.10,South,179,2.0,7.0,69,0.00,,,0.00,Wunderground v.1.15,2013-07-30 16:55:00,
2013-07-30 12:00:00,73.0,63.0,30.11,SE,131,3.0,3.0,71,0.00,,,0.00,Wunderground v.1.15,2013-07-30 17:00:00,
2013-07-30 12:05:00,72.9,62.1,30.10,South,169,3.0,3.0,69,0.00,,,0.00,Wunderground v.1.15,2013-07-30 17:05:00,
2013-07-30 12:10:00,72.8,62.4,30.10,SSE,150,2.0,2.0,70,0.00,,,0.00,Wunderground v.1.15,2013-07-30 17:10:00,
2013-07-30 12:15:00,72.6,61.8,30.10,SE,128,2.0,2.0,69,0.00,,,0.00,Wunderground v.1.15,2013-07-30 17:15:00,
2013-07-30 12:25:00,72.0,62.1,30.10,SE,137,3.0,4.0,71,0.00,,,0.00,Wunderground v.1.15,2013-07-30 17:25:00,
2013-07-30 12:30:00,71.8,62.3,30.10,ESE,114,3.0,3.0,72,0.00,,,0.00,Wunderground v.1.15,2013-07-30 17:30:00,
2013-07-30 12:35:00,71.7,61.8,30.10,SSE,148,3.0,3.0,71,0.00,,,0.00,Wunderground v.1.15,2013-07-30 17:35:00,
2013-07-30 12:40:00,71.4,62.3,30.10,SE,136,3.0,3.0,73,0.00,,,0.00,Wunderground v.1.15,2013-07-30 17:40:00,
2013-07-30 12:45:00,71.3,62.2,30.10,South,175,2.0,3.0,73,0.00,,,0.00,Wunderground v.1.15,2013-07-30 17:45:00,
2013-07-30 12:50:00,71.1,62.8,30.10,East,83,2.0,2.0,75,0.00,,,0.00,Wunderground v.1.15,2013-07-30 17:50:00,
2013-07-30 12:55:00,71.1,62.8,30.09,SE,140,2.0,4.0,75,0.00,,,0.00,Wunderground v.1.15,2013-07-30 17:55:00,
2013-07-30 13:00:00,70.7,62.8,30.09,SSE,157,2.0,2.0,76,0.00,,,0.00,Wunderground v.1.15,2013-07-30 18:00:00,
2013-07-30 13:05:00,70.5,62.6,30.09,ESE,112,2.0,2.0,76,0.00,,,0.00,Wunderground v.1.15,2013-07-30 18:05:00,
2013-07-30 13:10:00,70.3,63.1,30.09,ESE,103,2.0,2.0,78,0.00,,,0.00,Wunderground v.1.15,2013-07-30 18:10:00,
2013-07-30 13:15:00,70.3,63.1,30.09,East,86,2.0,2.0,78,0.00,,,0.00,Wunderground v.1.15,2013-07-30 18:15:00,
2013-07-30 13:20:00,70.3,63.1,30.09,ESE,118,2.0,2.0,78,0.00,,,0.00,Wunderground v.1.15,2013-07-30 18:20:00,
2013-07-30 13:25:00,70.3,63.5,30.09,SSW,205,2.0,4.0,79,0.00,,,0.00,Wunderground v.1.15,2013-07-30 18:25:00,
2013-07-30 13:30:00,70.3,63.1,30.09,SE,145,2.0,2.0,78,0.00,,,0.00,Wunderground v.1.15,2013-07-30 18:30:00,
2013-07-30 13:35:00,70.3,62.7,30.09,ESE,102,3.0,4.0,77,0.00,,,0.00,Wunderground v.1.15,2013-07-30 18:35:00,
2013-07-30 13:40:00,70.2,62.6,30.08,ESE,106,3.0,3.0,77,0.00,,,0.00,Wunderground v.1.15,2013-07-30 18:40:00,
2013-07-30 13:45:00,70.2,63.0,30.08,SE,144,2.0,3.0,78,0.00,,,0.00,Wunderground v.1.15,2013-07-30 18:45:00,
2013-07-30 13:50:00,70.2,63.4,30.08,SSE,164,2.0,8.0,79,0.00,,,0.00,Wunderground v.1.15,2013-07-30 18:50:00,
2013-07-30 13:55:00,70.1,63.3,30.08,SE,125,2.0,8.0,79,0.00,,,0.00,Wunderground v.1.15,2013-07-30 18:55:00,
2013-07-30 14:00:00,70.3,63.8,30.08,East,94,2.0,3.0,80,0.00,,,0.00,Wunderground v.1.15,2013-07-30 19:00:00,
2013-07-30 14:10:00,70.5,64.0,30.07,SE,145,2.0,2.0,80,0.00,,,0.00,Wunderground v.1.15,2013-07-30 19:10:00,
2013-07-30 14:15:00,70.4,64.3,30.08,South,175,2.0,2.0,81,0.00,,,0.00,Wunderground v.1.15,2013-07-30 19:15:00,
2013-07-30 14:20:00,70.3,64.5,30.08,South,178,2.0,2.0,82,0.00,,,0.00,Wunderground v.1.15,2013-07-30 19:20:00,
2013-07-30 14:25:00,69.9,64.8,30.08,SE,125,2.0,2.0,84,0.00,,,0.00,Wunderground v.1.15,2013-07-30 19:25:00,
2013-07-30 14:30:00,69.6,64.5,30.07,ESE,108,2.0,2.0,84,0.00,,,0.00,Wunderground v.1.15,2013-07-30 19:30:00,
2013-07-30 14:35:00,69.3,64.6,30.07,SSE,150,2.0,2.0,85,0.00,,,0.01,Wunderground v.1.15,2013-07-30 19:35:00,
2013-07-30 14:40:00,69.1,65.1,30.07,South,184,2.0,2.0,87,0.00,,,0.01,Wunderground v.1.15,2013-07-30 19:40:00,
2013-07-30 14:45:00,68.8,65.1,30.07,South,174,2.0,2.0,88,0.00,,,0.01,Wunderground v.1.15,2013-07-30 19:45:00,
2013-07-30 14:50:00,68.5,64.8,30.07,SE,130,1.0,9.0,88,0.00,,,0.01,Wunderground v.1.15,2013-07-30 19:50:00,
2013-07-30 14:55:00,68.3,64.9,30.07,South,173,1.0,9.0,89,0.00,,,0.01,Wunderground v.1.15,2013-07-30 19:55:00,
2013-07-30 15:00:00,68.2,65.2,30.07,ESE,113,2.0,2.0,90,0.00,,,0.01,Wunderground v.1.15,2013-07-30 20:00:00,
2013-07-30 15:05:00,68.1,65.1,30.07,ESE,114,2.0,2.0,90,0.00,,,0.01,Wunderground v.1.15,2013-07-30 20:05:00,
2013-07-30 15:10:00,68.0,65.0,30.07,East,88,2.0,2.0,90,0.00,,,0.01,Wunderground v.1.15,2013-07-30 20:10:00,
2013-07-30 15:15:00,67.9,64.9,30.07,SSE,149,1.0,2.0,90,0.00,,,0.01,Wunderground v.1.15,2013-07-30 20:15:00,
2013-07-30 15:20:00,67.8,65.1,30.07,East,101,1.0,1.0,91,0.00,,,0.01,Wunderground v.1.15,2013-07-30 20:20:00,
2013-07-30 15:25:00,67.7,65.3,30.07,ESE,115,1.0,4.0,92,0.00,,,0.01,Wunderground v.1.15,2013-07-30 20:25:00,
2013-07-30 15:30:00,67.5,64.8,30.07,SE,140,1.0,1.0,91,0.00,,,0.01,Wunderground v.1.15,2013-07-30 20:30:00,
2013-07-30 15:35:00,67.4,64.7,30.07,SE,134,2.0,2.0,91,0.00,,,0.01,Wunderground v.1.15,2013-07-30 20:35:00,
2013-07-30 15:40:00,67.3,64.9,30.07,SE,142,2.0,2.0,92,0.00,,,0.01,Wunderground v.1.15,2013-07-30 20:40:00,
2013-07-30 15:45:00,67.2,64.8,30.06,East,93,1.0,2.0,92,0.00,,,0.01,Wunderground v.1.15,2013-07-30 20:45:00,
2013-07-30 15:50:00,67.1,64.7,30.06,South,172,2.0,8.0,92,0.00,,,0.01,Wunderground v.1.15,2013-07-30 20:50:00,
2013-07-30 15:55:00,67.0,64.6,30.06,ESE,121,1.0,8.0,92,0.00,,,0.01,Wunderground v.1.15,2013-07-30 20:55:00,
2013-07-30 16:00:00,67.0,64.9,30.07,East,97,1.0,2.0,93,0.00,,,0.01,Wunderground v.1.15,2013-07-30 21:00:00,
2013-07-30 16:05:00,67.0,64.9,30.06,East,96,1.0,2.0,93,0.00,,,0.01,Wunderground v.1.15,2013-07-30 21:05:00,
2013-07-30 16:10:00,67.0,64.9,30.06,East,94,2.0,2.0,93,0.00,,,0.01,Wunderground v.1.15,2013-07-30 21:10:00,
2013-07-30 16:20:00,67.0,65.2,30.06,East,88,2.0,2.0,94,0.00,,,0.02,Wunderground v.1.15,2013-07-30 21:20:00,
2013-07-30 16:25:00,66.9,65.1,30.06,East,92,2.0,5.0,94,0.00,,,0.02,Wunderground v.1.15,2013-07-30 21:25:00,
2013-07-30 16:30:00,66.9,65.1,30.06,East,92,2.0,2.0,94,0.00,,,0.02,Wunderground v.1.15,2013-07-30 21:30:00,
2013-07-30 16:35:00,66.8,65.0,30.06,East,101,2.0,2.0,94,0.00,,,0.02,Wunderground v.1.15,2013-07-30 21:35:00,
2013-07-30 16:45:00,66.8,65.0,30.06,East,87,2.0,6.0,94,0.00,,,0.02,Wunderground v.1.15,2013-07-30 21:45:00,
2013-07-30 16:50:00,66.7,64.9,30.06,ESE,115,3.0,6.0,94,0.00,,,0.02,Wunderground v.1.15,2013-07-30 21:50:00,
2013-07-30 16:55:00,66.6,64.8,30.06,East,92,4.0,6.0,94,0.00,,,0.02,Wunderground v.1.15,2013-07-30 21:55:00,
2013-07-30 17:00:00,66.6,64.8,30.06,ESE,117,3.0,4.0,94,0.00,,,0.02,Wunderground v.1.15,2013-07-30 22:00:00,
2013-07-30 17:05:00,66.6,64.8,30.06,SE,124,3.0,4.0,94,0.00,,,0.02,Wunderground v.1.15,2013-07-30 22:05:00,
2013-07-30 17:10:00,66.7,64.9,30.06,ESE,113,2.0,2.0,94,0.00,,,0.02,Wunderground v.1.15,2013-07-30 22:10:00,
2013-07-30 17:20:00,66.8,65.0,30.06,East,92,3.0,7.0,94,0.00,,,0.02,Wunderground v.1.15,2013-07-30 22:20:00,
2013-07-30 17:25:00,66.8,65.0,30.06,East,96,4.0,7.0,94,0.00,,,0.02,Wunderground v.1.15,2013-07-30 22:25:00,
2013-07-30 17:30:00,66.8,65.0,30.06,East,95,3.0,7.0,94,0.00,,,0.02,Wunderground v.1.15,2013-07-30 22:30:00,
2013-07-30 17:35:00,66.8,65.0,30.05,East,86,3.0,7.0,94,0.00,,,0.02,Wunderground v.1.15,2013-07-30 22:35:00,
2013-07-30 17:40:00,66.8,65.0,30.05,East,92,3.0,3.0,94,0.00,,,0.02,Wunderground v.1.15,2013-07-30 22:40:00,
2013-07-30 17:45:00,66.8,65.0,30.05,East,88,2.0,3.0,94,0.00,,,0.02,Wunderground v.1.15,2013-07-30 22:45:00,
2013-07-30 17:50:00,66.8,65.0,30.05,NE,54,2.0,6.0,94,0.00,,,0.02,Wunderground v.1.15,2013-07-30 22:50:00,
2013-07-30 17:55:00,66.9,65.1,30.05,East,93,2.0,6.0,94,0.00,,,0.02,Wunderground v.1.15,2013-07-30 22:55:00,
2013-07-30 18:00:00,66.9,65.1,30.05,ENE,65,3.0,3.0,94,0.00,,,0.02,Wunderground v.1.15,2013-07-30 23:00:00,
2013-07-30 18:05:00,67.0,65.2,30.05,ENE,75,2.0,3.0,94,0.00,,,0.02,Wunderground v.1.15,2013-07-30 23:05:00,
2013-07-30 18:10:00,66.9,65.1,30.05,ENE,78,2.0,2.0,94,0.00,,,0.02,Wunderground v.1.15,2013-07-30 23:10:00,
2013-07-30 18:15:00,66.9,65.1,30.05,East,85,2.0,2.0,94,0.00,,,0.02,Wunderground v.1.15,2013-07-30 23:15:00,
2013-07-30 18:20:00,66.8,65.0,30.05,East,99,2.0,2.0,94,0.00,,,0.02,Wunderground v.1.15,2013-07-30 23:20:00,
2013-07-30 18:25:00,66.8,65.0,30.05,ENE,59,1.0,2.0,94,0.00,,,0.02,Wunderground v.1.15,2013-07-30 23:25:00,
2013-07-30 18:30:00,66.7,64.6,30.05,ENE,59,1.0,1.0,93,0.00,,,0.02,Wunderground v.1.15,2013-07-30 23:30:00,
2013-07-30 18:35:00,66.7,64.9,30.05,ENE,57,2.0,2.0,94,0.00,,,0.02,Wunderground v.1.15,2013-07-30 23:35:00,
2013-07-30 18:40:00,66.6,64.8,30.05,ENE,65,3.0,3.0,94,0.00,,,0.02,Wunderground v.1.15,2013-07-30 23:40:00,
2013-07-30 18:45:00,66.7,64.9,30.04,East,94,2.0,3.0,94,0.00,,,0.02,Wunderground v.1.15,2013-07-30 23:45:00,
2013-07-30 18:50:00,66.7,64.9,30.04,ENE,65,2.0,8.0,94,0.00,,,0.02,Wunderground v.1.15,2013-07-30 23:50:00,
2013-07-30 18:55:00,66.7,64.9,30.04,ENE,71,1.0,8.0,94,0.00,,,0.02,Wunderground v.1.15,2013-07-30 23:55:00,
2013-07-30 19:00:00,66.7,64.9,30.04,East,93,1.0,2.0,94,0.00,,,0.02,Wunderground v.1.15,2013-07-31 00:00:00,
2013-07-30 19:10:00,66.6,64.8,30.04,ENE,63,2.0,2.0,94,0.00,,,0.02,Wunderground v.1.15,2013-07-31 00:10:00,
2013-07-30 19:15:00,66.6,64.8,30.04,East,97,2.0,2.0,94,0.00,,,0.02,Wunderground v.1.15,2013-07-31 00:15:00,
2013-07-30 19:20:00,66.5,64.7,30.04,East,91,2.0,2.0,94,0.00,,,0.02,Wunderground v.1.15,2013-07-31 00:20:00,
2013-07-30 19:25:00,66.5,64.7,30.04,East,87,1.0,2.0,94,0.00,,,0.02,Wunderground v.1.15,2013-07-31 00:25:00,
2013-07-30 19:30:00,66.4,64.6,30.04,NE,52,1.0,2.0,94,0.00,,,0.02,Wunderground v.1.15,2013-07-31 00:30:00,
2013-07-30 19:35:00,66.4,64.6,30.04,East,93,1.0,2.0,94,0.00,,,0.02,Wunderground v.1.15,2013-07-31 00:35:00,
2013-07-30 19:40:00,66.3,64.8,30.05,ESE,103,1.0,3.0,95,0.00,,,0.02,Wunderground v.1.15,2013-07-31 00:40:00,